Regional Weather Roundup
Issued by NWS

Home | Current Version | Previous Version | Graphics & Text | Print | Product List | Glossary Off
Versions: 1 2 3 4 5 6 7 8 9 10 11 12 13 14 15 16 17 18 19 20 21 22 23 24 25 26 27 28 29 30 31 32 33 34 35 36 37 38 39 40 41 42 43 44 45 46 47 48 49 50

000
ASUS45 KBOU 172107
RWRCO

WEATHER ROUNDUP FOR COLORADO
NATIONAL WEATHER SERVICE DENVER/BOULDER CO
300 PM MDT FRI APR 17 2015

NOTE: "FAIR" INDICATES FEW OR NO CLOUDS BELOW 12000 FEET WITH NO
SIGNIFICANT WEATHER AND/OR OBSTRUCTIONS TO VISIBILITY.

COZ001>005-013-030-031-172200-
...NORTHWEST COLORADO...

CITY           SKY/WX    TMP DP  RH WIND       PRES   REMARKS
CRAIG          PTSUNNY   54  33  45 NE8       29.91F
HAYDEN         CLOUDY    45  32  61 SE22G39   29.95R
MEEKER         RAIN      36  31  82 MISG      29.98R
MOUNT WERNER   NOT AVBL
STEAMBOAT SPGS CLOUDY    41  30  66 SE25G31   29.93S
WALDEN         CLOUDY    32  30  93 NE10      30.03R VSB 1/2 WCI  24
$$

COZ006>008-011-172200-
...WEST CENTRAL VALLEYS...

CITY           SKY/WX    TMP DP  RH WIND       PRES   REMARKS
GRAND JUNCTION LGT RAIN  33  33 100 NE6       30.01F FOG     WCI  28
MONTROSE       CLOUDY    43  32  65 CALM      30.01F
EAGLE          CLOUDY    45  36  70 W5        29.93F
RIFLE          CLOUDY    37  34  89 W13       29.98F
DELTA          CLOUDY    43  37  80 CALM      30.02F
NUCLA          LGT SNOW  36  34  93 CALM      30.08S
$$

COZ017>023-064>068-172200-
...SOUTHWEST COLORADO...

CITY           SKY/WX    TMP DP  RH WIND       PRES   REMARKS
DURANGO        PTSUNNY   43  17  35 SW12G20   30.01F
CORTEZ         CLOUDY    43  27  53 NW10      30.05F
PAGOSA SPRINGS CLOUDY    39   7  26 SW9G23    30.01S
TELLURIDE      LGT SNOW  31  25  78 W13       30.00F WCI  21
WOLF CREEK PAS LGT SNOW  16   9  73 SW23      30.03R VSB 3/4 WCI  -2
$$

COZ009-010-012-014-032>034-037-058>063-172200-
...CENTRAL COLORADO...

CITY           SKY/WX    TMP DP  RH WIND       PRES   REMARKS
ASPEN          LGT SNOW  33  29  85 N7        29.93R FOG     WCI  27
BUENA VISTA    CLOUDY    33  23  67 NE5       30.00S WCI  28
COPPER MTN     CLOUDY    23  12  63 MISG      29.95R
BERTHOUD PASS  PTSUNNY   16   9  73 MISG      30.00R HAZE
COTTONWOOD PAS LGT SNOW  30  28  93 NE3       30.00R
GUNNISON       PTSUNNY   32  23  69 SE5       30.00S WCI  27
KREMMLING      CLOUDY    43  30  61 N16       29.94F
LEADVILLE      PTSUNNY   29   7  39 SE10G17   29.96S WCI  20
MONARCH PASS   CLOUDY    16  12  86 MISG      30.08R
SALIDA         CLOUDY    36  27  72 CALM      30.07S
SUNLIGHT       LGT RAIN  28  28 100 NW5       30.00F VSB 1/2 WCI  23
WILKERSON PASS MOSUNNY   27  19  74 SW7G18    30.03R WCI  19
$$

COZ069>075-172200-
...SAN LUIS VALLEY/SANGRE DE CRISTO MOUNTAINS...

CITY           SKY/WX    TMP DP  RH WIND       PRES   REMARKS
ALAMOSA        CLOUDY    41  14  33 SW12G20   29.97S
LA VETA PASS   CLOUDY    28  18  64 S8G20     30.01S WCI  20
SAGUACHE       CLOUDY    32  27  80 NW6       30.02S WCI  26
$$

COZ035-036-038>040-172200-
...NORTHERN COLORADO FRONT RANGE...

CITY           SKY/WX    TMP DP  RH WIND       PRES   REMARKS
DENVER INTL AP PTSUNNY   48  41  76 W7        29.96F
DMNS CITY PARK   N/A     46  38  72 N3G9      29.97F
AURORA         MOSUNNY   43  43  99 NW6       29.98S
FRONT RANGE AP PTSUNNY   50  41  71 W7        29.97F
ERIE MUNI ARPT CLOUDY    47  43  85 N14       29.97S
BOULDER MUN AP CLOUDY    46  41  81 N5        29.97S
CENTENNIAL     PTSUNNY   45  34  65 NW3       29.97F
BROOMFIELD     NOT AVBL
FORT COLLINS   CLOUDY    43  39  87 N18       30.00S
LONGMONT       CLOUDY    49  41  74 N14       29.98F
$$

COZ041-046-047-076>085-087-088-172200-
...PIKES PEAK/PALMER DIVIDE AND SOUTHERN FOOTHILLS...

CITY           SKY/WX    TMP DP  RH WIND       PRES   REMARKS
COLO. SPRINGS  MOSUNNY   51  12  21 S18G29    29.97S
A. F. ACADEMY  SUNNY     45  14  29 S18G30    29.96S
ELLICOTT       SUNNY    N/A N/A N/A W14G20    29.96S
FALCON         SUNNY     48  15  26 S13G24    29.98F
FORT CARSON    SUNNY     51  18  27 SW18G24   29.95S
LIMON          MOSUNNY   56  32  40 S20       29.94F
MONUMENT HILL  SUNNY     45  21  39 CALM      29.97S
TRINIDAD       PTSUNNY   57  14  18 S12G20    29.90F
$$

COZ042>045-048>051-090-091-172200-
...NORTHEAST COLORADO...

CITY           SKY/WX    TMP DP  RH WIND       PRES   REMARKS
GREELEY ARPT   CLOUDY    45  39  81 N10       29.98R
AKRON          CLOUDY    50  50 100 E17       29.97F
BURLINGTON     MOSUNNY   61  48  62 SE16      29.94F
WRAY           PTSUNNY   60  51  72 E15G24    29.96F
STERLING       CLOUDY    52  50  93 SE15G24   29.97F
HOLYOKE        MOSUNNY   61  50  67 SE17      29.98F
FORT MORGAN    CLOUDY    51  48  89 E16G22    29.96F
$$

COZ086-089-092>099-172200-
...SOUTHEAST COLORADO...

CITY           SKY/WX    TMP DP  RH WIND       PRES   REMARKS
PUEBLO         SUNNY     56  26  31 SW10      29.93F
LA JUNTA       MOSUNNY   62  37  39 VRB3      29.89F
LAMAR          MOSUNNY   69  24  18 S16G24    29.87F
SPRINGFIELD      N/A     65  17  15 S18G24    29.91F
$$



USA.gov is the U.S. government's official web portal to all federal, state and local government web resources and services.